Oscoda, MI

7:19 AM EDT on September 16, 2019 (GMT -0400)
Oscoda-Wurtsmith

Weather History for KOSC - August, 2019

Change the Weather History Date:

Monday, August 26, 2019

  Actual Average Record
Temperature  
Mean Temperature 71 °F -  
Max Temperature 76 °F 73 °F 90 °F (2013)
Min Temperature 66 °F 54 °F 41 °F (2017)
Cooling Degree Days 6    
Growing Degree Days 21 (Base 50)    
Moisture  
Dew Point 62 °F    
Average Humidity 75    
Maximum Humidity 100    
Minimum Humidity 58    
Precipitation  
Precipitation 0.43 in - - ()
Sea Level Pressure  
Sea Level Pressure 30.00 in    
Wind  
Wind Speed 9 mph (SE)    
Max Wind Speed 21 mph    
Max Gust Speed 29 mph    
Visibility 9 miles    
Events Rain    
Averages and records for this station are not official NWS values.
T = Trace of Precipitation, MM = Missing Value Source: NWS Daily Summary

Daily Weather History Graph

Daily Weather History Graph

Search for Another Location

Airport or City:

Astronomy

Aug. 26, 2019 Rise Set
Actual Time 6:48 AM EDT 8:20 PM EDT
Civil Twilight 6:18 AM EDT 8:51 PM EDT
Nautical Twilight 5:41 AM EDT 9:28 PM EDT
Astronomical Twilight 5:01 AM EDT 10:07 PM EDT
Moon 2:04 AM EDT (8/26) 5:52 PM EDT (8/26)
Length of Visible Light 14h 32m
Length of Day
13h 31m
Waning Crescent, 19% of the Moon is Illuminated
Aug 26
Waning Crescent
Aug 30
New
Sep 5
First Quarter
Sep 14
Full
Sep 21
Last Quarter

Hourly Weather History & Observations

Time (EDT) Temp. Dew Point Humidity Pressure Visibility Wind Dir Wind Speed Gust Speed Precip Events Conditions
12:15 AM 67.8 °F 60.8 °F 78% 30.14 in 10.0 mi SE 4.6 mph - N/A   Clear
12:16 AM 67.8 °F 61.0 °F 79% 30.14 in 10.0 mi SE 4.6 mph - N/A   Clear
12:35 AM 67.6 °F 59.5 °F 75% 30.13 in 10.0 mi SE 4.6 mph - N/A   Clear
12:36 AM 67.5 °F 59.4 °F 75% 30.13 in 10.0 mi SSE 4.6 mph - N/A   Clear
12:59 AM 67.3 °F 58.1 °F 72% 30.13 in 10.0 mi SSE 4.6 mph - N/A   Clear
1:17 AM 66.6 °F 57.6 °F 73% 30.13 in 10.0 mi Calm Calm - N/A   Clear
1:35 AM 66.4 °F 57.4 °F 73% 30.13 in 10.0 mi SE 3.5 mph - N/A   Clear
1:55 AM 66.9 °F 57.9 °F 73% 30.13 in 10.0 mi SE 5.8 mph - N/A   Clear
2:15 AM 67.8 °F 59.7 °F 75% 30.13 in 10.0 mi SSE 8.1 mph - N/A   Clear
2:20 AM 67.8 °F 60.1 °F 76% 30.13 in 10.0 mi SE 6.9 mph - N/A   Clear
2:38 AM 68.0 °F 60.4 °F 77% 30.12 in 10.0 mi SE 10.4 mph - N/A   Clear
2:56 AM 68.0 °F 60.8 °F 78% 30.12 in 10.0 mi SE 8.1 mph - N/A   Clear
3:15 AM 68.0 °F 61.0 °F 78% 30.11 in 10.0 mi SE 6.9 mph - N/A   Clear
3:35 AM 68.2 °F 61.2 °F 78% 30.10 in 10.0 mi SE 9.2 mph - N/A   Clear
3:36 AM 68.2 °F 61.2 °F 78% 30.10 in 10.0 mi SE 9.2 mph - N/A   Clear
3:58 AM 68.4 °F 61.3 °F 78% 30.10 in 10.0 mi SE 5.8 mph - N/A   Clear
4:17 AM 68.5 °F 61.7 °F 79% 30.10 in 10.0 mi SE 6.9 mph - N/A   Clear
4:35 AM 68.4 °F 61.7 °F 79% 30.10 in 10.0 mi SE 6.9 mph 16.1 mph N/A   Clear
4:55 AM 68.2 °F 61.5 °F 79% 30.10 in 10.0 mi SE 6.9 mph - N/A   Clear
4:56 AM 68.2 °F 61.3 °F 79% 30.10 in 10.0 mi SE 6.9 mph - N/A   Clear
5:15 AM 68.4 °F 61.0 °F 77% 30.10 in 10.0 mi SSE 8.1 mph - N/A   Scattered Clouds
5:38 AM 68.2 °F 60.8 °F 77% 30.09 in 10.0 mi SE 6.9 mph - N/A   Overcast
6:15 AM 68.2 °F 60.3 °F 76% 30.09 in 10.0 mi SSE 8.1 mph - N/A   Scattered Clouds
6:16 AM 68.2 °F 60.3 °F 76% 30.09 in 10.0 mi SE 6.9 mph - N/A   Scattered Clouds
6:35 AM 68.0 °F 60.3 °F 76% 30.09 in 10.0 mi SE 8.1 mph - N/A   Clear
6:59 AM 68.2 °F 60.6 °F 77% 30.09 in 10.0 mi SE 6.9 mph - N/A   Clear
7:17 AM 68.2 °F 60.8 °F 77% 30.09 in 10.0 mi SE 5.8 mph - N/A   Clear
7:35 AM 68.5 °F 60.8 °F 76% 30.08 in 10.0 mi SE 6.9 mph - N/A   Clear
7:55 AM 68.9 °F 60.8 °F 75% 30.08 in 10.0 mi SE 6.9 mph - N/A   Clear
7:56 AM 68.9 °F 60.8 °F 75% 30.08 in 10.0 mi SE 6.9 mph - N/A   Clear
8:15 AM 69.8 °F 60.8 °F 73% 30.08 in 10.0 mi SE 10.4 mph - N/A   Clear
8:38 AM 70.2 °F 61.0 °F 73% 30.07 in 10.0 mi SE 10.4 mph 18.4 mph N/A   Clear
8:56 AM 70.9 °F 61.2 °F 71% 30.08 in 10.0 mi SE 12.7 mph 17.3 mph N/A   Clear
9:15 AM 71.6 °F 61.0 °F 69% 30.07 in 10.0 mi SE 10.4 mph 19.6 mph N/A   Clear
9:16 AM 71.6 °F 61.0 °F 69% 30.07 in 10.0 mi SE 11.5 mph 19.6 mph N/A   Clear
9:35 AM 71.8 °F 61.0 °F 69% 30.07 in 10.0 mi SE 11.5 mph 16.1 mph N/A   Clear
9:59 AM 72.0 °F 61.0 °F 68% 30.06 in 10.0 mi SE 15.0 mph 23.0 mph N/A   Clear
10:17 AM 72.5 °F 61.0 °F 67% 30.06 in 10.0 mi SE 12.7 mph 18.4 mph N/A   Clear
10:36 AM 72.7 °F 61.0 °F 67% 30.05 in 10.0 mi SE 12.7 mph 19.6 mph N/A   Clear
10:55 AM 72.3 °F 60.6 °F 67% 30.05 in 10.0 mi SE 11.5 mph 21.9 mph N/A   Clear
11:15 AM 73.4 °F 61.0 °F 65% 30.04 in 10.0 mi SE 13.8 mph 19.6 mph N/A   Clear
11:38 AM 73.4 °F 60.6 °F 64% 30.04 in 10.0 mi SE 13.8 mph 19.6 mph N/A   Clear
11:56 AM 74.1 °F 60.6 °F 63% 30.04 in 10.0 mi SE 11.5 mph 18.4 mph N/A   Clear
12:15 PM 74.8 °F 62.4 °F 65% 30.03 in 10.0 mi ESE 12.7 mph 21.9 mph N/A   Clear
12:35 PM 74.7 °F 62.4 °F 66% 30.02 in 10.0 mi ESE 17.3 mph 21.9 mph N/A   Clear
12:59 PM 75.6 °F 62.1 °F 63% 30.01 in 10.0 mi ESE 17.3 mph 24.2 mph N/A   Clear
1:17 PM 75.6 °F 62.1 °F 63% 30.00 in 10.0 mi ESE 15.0 mph 20.7 mph N/A   Clear
1:35 PM 75.0 °F 61.2 °F 62% 30.00 in 10.0 mi SE 15.0 mph 27.6 mph N/A   Clear
1:36 PM 75.0 °F 61.3 °F 62% 30.00 in 10.0 mi ESE 15.0 mph 27.6 mph N/A   Clear
1:55 PM 75.4 °F 61.7 °F 62% 29.99 in 10.0 mi ESE 17.3 mph 24.2 mph N/A   Scattered Clouds
2:15 PM 75.6 °F 61.0 °F 60% 29.99 in 10.0 mi ESE 19.6 mph 26.5 mph N/A   Scattered Clouds
2:38 PM 75.4 °F 60.6 °F 60% 29.98 in 10.0 mi ESE 16.1 mph 27.6 mph N/A   Scattered Clouds
2:56 PM 76.1 °F 60.4 °F 58% 29.97 in 10.0 mi ESE 16.1 mph 24.2 mph N/A   Scattered Clouds
3:15 PM 74.8 °F 59.2 °F 58% 29.96 in 10.0 mi ESE 18.4 mph 28.8 mph N/A   Scattered Clouds
3:16 PM 74.8 °F 59.2 °F 58% 29.96 in 10.0 mi ESE 19.6 mph 28.8 mph N/A   Scattered Clouds
3:35 PM 75.2 °F 59.7 °F 58% 29.95 in 10.0 mi ESE 13.8 mph 25.3 mph N/A   Scattered Clouds
3:59 PM 75.0 °F 59.4 °F 58% 29.94 in 10.0 mi ESE 20.7 mph 26.5 mph N/A   Clear
4:17 PM 74.3 °F 59.0 °F 59% 29.93 in 10.0 mi ESE 17.3 mph 26.5 mph N/A   Clear
4:35 PM 73.6 °F 59.2 °F 61% 29.93 in 10.0 mi ESE 15.0 mph 24.2 mph N/A   Clear
4:36 PM 73.6 °F 59.4 °F 61% 29.93 in 10.0 mi ESE 15.0 mph 24.2 mph N/A   Clear
4:55 PM 73.4 °F 60.3 °F 63% 29.92 in 10.0 mi ESE 13.8 mph 21.9 mph N/A   Clear
5:15 PM 73.0 °F 60.1 °F 64% 29.91 in 10.0 mi SE 15.0 mph 23.0 mph N/A   Scattered Clouds
5:38 PM 73.4 °F 58.1 °F 59% 29.90 in 10.0 mi SE 15.0 mph - N/A   Mostly Cloudy
5:55 PM 73.0 °F 59.5 °F 62% 29.90 in 10.0 mi SE 10.4 mph 18.4 mph N/A   Overcast
6:15 PM 72.5 °F 60.3 °F 65% 29.90 in 10.0 mi SE 10.4 mph - N/A   Overcast
6:16 PM 72.5 °F 60.3 °F 65% 29.90 in 10.0 mi SE 10.4 mph - N/A   Overcast
6:35 PM 72.5 °F 60.4 °F 66% 29.89 in 10.0 mi SE 10.4 mph 19.6 mph N/A   Overcast
6:59 PM 71.6 °F 61.3 °F 70% 29.89 in 10.0 mi SSE 12.7 mph 21.9 mph N/A Rain Light Rain
7:17 PM 68.2 °F 62.6 °F 82% 29.89 in 7.0 mi SSE 8.1 mph 11.5 mph 0.01 in Rain Light Rain
7:35 PM 67.8 °F 63.0 °F 84% 29.88 in 10.0 mi SSE 12.7 mph - 0.02 in Rain Light Rain
7:55 PM 68.2 °F 63.1 °F 84% 29.88 in 10.0 mi SE 9.2 mph 17.3 mph 0.02 in Rain Light Rain
8:15 PM 67.5 °F 66.2 °F 96% 29.87 in 7.0 mi SE 11.5 mph - 0.03 in Rain Light Rain
8:19 PM 67.5 °F 66.2 °F 96% 29.87 in 7.0 mi SSE 11.5 mph 18.4 mph 0.03 in Rain Light Rain
8:38 PM 67.1 °F 66.7 °F 99% 29.87 in 7.0 mi SE 10.4 mph 18.4 mph 0.07 in Rain Rain
8:56 PM 66.7 °F 66.4 °F 99% 29.87 in 4.0 mi SSE 10.4 mph 20.7 mph 0.15 in Rain Heavy Rain
9:15 PM 66.6 °F 66.6 °F 100% 29.87 in 5.0 mi SE 9.2 mph 18.4 mph 0.05 in Rain Rain
9:16 PM 66.6 °F 66.6 °F 100% 29.87 in 5.0 mi SE 8.1 mph 18.4 mph 0.05 in Rain Rain
9:35 PM 66.6 °F 66.6 °F 100% 29.87 in 5.0 mi SE 12.7 mph 18.4 mph 0.09 in Rain Rain
9:36 PM 66.6 °F 66.6 °F 100% 29.87 in 4.0 mi SE 12.7 mph 18.4 mph 0.09 in Rain Rain
9:59 PM 66.4 °F 66.4 °F 100% 29.85 in 5.0 mi SE 12.7 mph 19.6 mph 0.15 in Rain Light Rain
10:17 PM 66.6 °F 66.2 °F 99% 29.85 in 7.0 mi SE 15.0 mph 21.9 mph 0.01 in Rain Light Rain
10:35 PM 66.6 °F 65.3 °F 96% 29.84 in 10.0 mi SSE 17.3 mph 21.9 mph 0.01 in Rain Light Rain
10:36 PM 66.6 °F 65.3 °F 96% 29.84 in 10.0 mi SSE 17.3 mph 21.9 mph 0.01 in Rain Light Rain
10:55 PM 66.4 °F 66.4 °F 100% 29.83 in 4.0 mi SSE 12.7 mph 26.5 mph 0.05 in Rain Rain
11:15 PM 66.2 °F 66.2 °F 100% 29.82 in 4.0 mi SSE 12.7 mph 26.5 mph 0.04 in Rain Light Rain
11:38 PM 66.2 °F 66.2 °F 100% 29.81 in 5.0 mi SSE 17.3 mph 20.7 mph 0.06 in Rain Light Rain
11:56 PM 66.4 °F 65.3 °F 96% 29.80 in 10.0 mi SSE 13.8 mph 24.2 mph 0.06 in   Light Drizzle